| time (UTC) | temp C | wind direction | speed KPH | gust KPH | rain 1hr cm | rain 24hr cm | rain mn cm | humidity % | barometer mb |
| 20260507012600 | 16 | 12 | 8.0 | 16.1 | 0.00 | 0.08 | 0.08 | 75 | 1015.1 |
| 20260507012100 | 16 | 3 | 9.7 | 16.1 | 0.00 | 0.08 | 0.08 | 75 | 1014.9 |
| 20260507011601 | 16 | 6 | 9.7 | 20.9 | 0.00 | 0.08 | 0.08 | 75 | 1014.9 |
| 20260507011102 | 16 | 19 | 11.3 | 24.1 | 0.00 | 0.08 | 0.08 | 75 | 1014.9 |
| 20260507010600 | 16 | 32 | 12.9 | 24.1 | 0.00 | 0.08 | 0.08 | 74 | 1014.7 |
| 20260507010109 | 16 | 338 | 11.3 | 22.5 | 0.00 | 0.08 | 0.08 | 74 | 1014.6 |
| 20260507005601 | 16 | 20 | 9.7 | 22.5 | 0.00 | 0.08 | 0.08 | 74 | 1014.6 |
| 20260507005059 | 16 | 356 | 8.0 | 17.7 | 0.00 | 0.08 | 0.08 | 75 | 1014.6 |
| 20260507004601 | 16 | 321 | 9.7 | 17.7 | 0.00 | 0.08 | 0.08 | 74 | 1014.5 |
| 20260507004101 | 16 | 332 | 9.7 | 19.3 | 0.00 | 0.08 | 0.08 | 74 | 1014.4 |
| 20260507003601 | 16 | 27 | 8.0 | 22.5 | 0.00 | 0.08 | 0.08 | 74 | 1014.4 |
| 20260507003100 | 16 | 6 | 12.9 | 22.5 | 0.00 | 0.08 | 0.08 | 74 | 1014.4 |
| 20260507002603 | 16 | 25 | 11.3 | 19.3 | 0.00 | 0.08 | 0.08 | 74 | 1014.5 |
| 20260507002100 | 16 | 351 | 9.7 | 17.7 | 0.00 | 0.08 | 0.08 | 74 | 1014.3 |
| 20260507001605 | 16 | 44 | 8.0 | 14.5 | 0.00 | 0.08 | 0.08 | 74 | 1014.2 |
| 20260507001100 | 16 | 6 | 8.0 | 19.3 | 0.00 | 0.08 | 0.08 | 74 | 1014.2 |
| 20260507000600 | 16 | 29 | 9.7 | 19.3 | 0.00 | 0.08 | 0.08 | 74 | 1014.1 |
| 20260507000100 | 16 | 23 | 9.7 | 19.3 | 0.00 | 0.08 | 0.08 | 73 | 1014.0 |
| 20260506235559 | 17 | 44 | 12.9 | 20.9 | 0.00 | 0.08 | 0.08 | 73 | 1013.9 |
| 20260506235100 | 17 | 23 | 11.3 | 22.5 | 0.00 | 0.08 | 0.08 | 73 | 1013.9 |
| 20260506234603 | 17 | 42 | 12.9 | 22.5 | 0.00 | 0.08 | 0.08 | 73 | 1013.9 |
| 20260506234102 | 17 | 18 | 9.7 | 22.5 | 0.00 | 0.08 | 0.08 | 73 | 1013.8 |
| 20260506233604 | 17 | 57 | 9.7 | 22.5 | 0.00 | 0.08 | 0.08 | 73 | 1013.8 |
| 20260506233124 | 17 | 39 | 11.3 | 22.5 | 0.00 | 0.08 | 0.08 | 73 | 1013.8 |
| 20260506232600 | 17 | 25 | 9.7 | 20.9 | 0.00 | 0.08 | 0.08 | 73 | 1013.8 |
| 20260506232101 | 17 | 45 | 14.5 | 24.1 | 0.00 | 0.08 | 0.08 | 72 | 1013.7 |
| 20260506231558 | 17 | 29 | 11.3 | 24.1 | 0.00 | 0.08 | 0.08 | 72 | 1013.7 |
| 20260506231103 | 17 | 347 | 8.0 | 22.5 | 0.00 | 0.08 | 0.08 | 73 | 1013.7 |
| 20260506230600 | 17 | 29 | 12.9 | 22.5 | 0.00 | 0.08 | 0.08 | 72 | 1013.6 |
| 20260506230100 | 17 | 335 | 12.9 | 22.5 | 0.00 | 0.08 | 0.08 | 72 | 1013.6 |
| 20260506225601 | 17 | 41 | 11.3 | 22.5 | 0.00 | 0.08 | 0.08 | 72 | 1013.4 |
| 20260506225100 | 18 | 36 | 8.0 | 19.3 | 0.00 | 0.08 | 0.08 | 72 | 1013.4 |
| 20260506224559 | 17 | 51 | 11.3 | 19.3 | 0.00 | 0.08 | 0.08 | 71 | 1013.4 |
| 20260506224100 | 18 | 40 | 8.0 | 19.3 | 0.00 | 0.08 | 0.08 | 71 | 1013.3 |
| 20260506223603 | 18 | 349 | 8.0 | 19.3 | 0.00 | 0.08 | 0.08 | 72 | 1013.3 |
| 20260506223103 | 18 | 19 | 9.7 | 19.3 | 0.00 | 0.08 | 0.08 | 71 | 1013.1 |
| 20260506222601 | 18 | 356 | 9.7 | 19.3 | 0.00 | 0.08 | 0.08 | 72 | 1013.1 |
| 20260506222059 | 18 | 326 | 9.7 | 17.7 | 0.00 | 0.08 | 0.08 | 70 | 1013.1 |
| 20260506221600 | 18 | 40 | 8.0 | 17.7 | 0.00 | 0.08 | 0.08 | 69 | 1013.3 |
| 20260506221059 | 18 | 329 | 8.0 | 20.9 | 0.00 | 0.08 | 0.08 | 72 | 1013.4 |
| 20260506220601 | 18 | 9 | 12.9 | 20.9 | 0.00 | 0.08 | 0.08 | 69 | 1013.4 |
| 20260506220100 | 18 | 333 | 9.7 | 20.9 | 0.00 | 0.08 | 0.08 | 72 | 1013.3 |
| 20260506215600 | 18 | 27 | 11.3 | 20.9 | 0.00 | 0.08 | 0.08 | 70 | 1013.2 |
| 20260506215100 | 18 | 55 | 9.7 | 20.9 | 0.00 | 0.08 | 0.08 | 70 | 1013.1 |
| 20260506214558 | 18 | 325 | 9.7 | 20.9 | 0.00 | 0.08 | 0.08 | 72 | 1013.1 |
| 20260506214101 | 17 | 285 | 14.5 | 20.9 | 0.00 | 0.08 | 0.08 | 70 | 1013.1 |
| 20260506213600 | 17 | 327 | 12.9 | 24.1 | 0.00 | 0.08 | 0.08 | 71 | 1013.2 |
| 20260506213124 | 17 | 53 | 12.9 | 24.1 | 0.00 | 0.08 | 0.08 | 71 | 1013.4 |
| 20260506212600 | 17 | 52 | 9.7 | 17.7 | 0.00 | 0.08 | 0.08 | 71 | 1013.5 |
| 20260506212102 | 17 | 358 | 11.3 | 17.7 | 0.00 | 0.08 | 0.08 | 72 | 1013.6 |
| 20260506211558 | 17 | 23 | 8.0 | 17.7 | 0.00 | 0.08 | 0.08 | 74 | 1013.8 |
| 20260506211100 | 17 | 51 | 6.4 | 17.7 | 0.00 | 0.08 | 0.08 | 74 | 1013.9 |
| 20260506210600 | 17 | 335 | 11.3 | 17.7 | 0.00 | 0.08 | 0.08 | 73 | 1013.5 |
| 20260506205600 | 17 | 346 | 8.0 | 17.7 | 0.00 | 0.08 | 0.08 | 73 | 1013.4 |
| 20260506205100 | 17 | 354 | 9.7 | 17.7 | 0.00 | 0.08 | 0.08 | 74 | 1013.5 |
| 20260506204559 | 17 | 39 | 8.0 | 16.1 | 0.00 | 0.08 | 0.08 | 73 | 1013.6 |
| 20260506204100 | 16 | 4 | 8.0 | 16.1 | 0.00 | 0.08 | 0.08 | 73 | 1013.7 |
| 20260506203605 | 16 | 41 | 9.7 | 16.1 | 0.00 | 0.08 | 0.08 | 72 | 1013.7 |
| 20260506203059 | 17 | 10 | 8.0 | 16.1 | 0.00 | 0.08 | 0.08 | 71 | 1013.7 |
| 20260506202601 | 17 | 339 | 8.0 | 16.1 | 0.00 | 0.08 | 0.08 | 72 | 1013.7 |
| 20260506202100 | 17 | 346 | 8.0 | 12.9 | 0.00 | 0.08 | 0.08 | 73 | 1013.9 |
| 20260506201600 | 16 | 124 | 8.0 | 12.9 | 0.00 | 0.08 | 0.08 | 74 | 1014.1 |
| 20260506201100 | 17 | 71 | 6.4 | 11.3 | 0.00 | 0.08 | 0.08 | 72 | 1014.3 |
| 20260506200600 | 17 | 231 | 1.6 | 11.3 | 0.00 | 0.08 | 0.08 | 72 | 1014.3 |
| 20260506200101 | 16 | 187 | 4.8 | 11.3 | 0.00 | 0.08 | 0.08 | 73 | 1014.4 |
| 20260506195600 | 17 | 17 | 6.4 | 11.3 | 0.00 | 0.08 | 0.08 | 72 | 1014.5 |
| 20260506195100 | 17 | 20 | 1.6 | 6.4 | 0.00 | 0.08 | 0.08 | 73 | 1014.5 |
| 20260506194635 | 16 | 154 | 1.6 | 12.9 | 0.00 | 0.08 | 0.08 | 73 | 1014.7 |
| 20260506194103 | 16 | 0 | 3.2 | 12.9 | 0.00 | 0.08 | 0.08 | 74 | 1014.7 |
| 20260506193600 | 16 | 33 | 3.2 | 11.3 | 0.00 | 0.08 | 0.08 | 72 | 1014.7 |
| 20260506193106 | 16 | 5 | 6.4 | 9.7 | 0.00 | 0.08 | 0.08 | 73 | 1014.7 |
| 20260506192600 | 16 | 92 | 1.6 | 9.7 | 0.00 | 0.08 | 0.08 | 75 | 1014.8 |
| 20260506192101 | 15 | 240 | 1.6 | 11.3 | 0.00 | 0.08 | 0.08 | 76 | 1014.8 |
| 20260506191607 | 15 | 14 | 4.8 | 12.9 | 0.00 | 0.08 | 0.08 | 75 | 1014.9 |
| 20260506191100 | 15 | 314 | 6.4 | 12.9 | 0.00 | 0.08 | 0.08 | 76 | 1014.7 |
| 20260506190603 | 15 | 67 | 6.4 | 17.7 | 0.00 | 0.08 | 0.08 | 76 | 1014.9 |
| 20260506190108 | 14 | 40 | 8.0 | 25.7 | 0.00 | 0.08 | 0.08 | 76 | 1014.6 |
| 20260506185600 | 15 | 20 | 14.5 | 25.7 | 0.00 | 0.08 | 0.08 | 76 | 1014.5 |
| 20260506185100 | 15 | 7 | 12.9 | 25.7 | 0.00 | 0.08 | 0.08 | 77 | 1014.0 |
| 20260506184605 | 15 | 359 | 12.9 | 27.4 | 0.00 | 0.08 | 0.08 | 77 | 1014.1 |
| 20260506184101 | 14 | 336 | 14.5 | 29.0 | 0.00 | 0.08 | 0.08 | 78 | 1014.2 |
| 20260506183601 | 14 | 25 | 19.3 | 29.0 | 0.00 | 0.08 | 0.08 | 76 | 1013.8 |
| 20260506183058 | 14 | 306 | 12.9 | 24.1 | 0.00 | 0.08 | 0.08 | 78 | 1013.9 |
| 20260506182600 | 14 | 4 | 9.7 | 25.7 | 0.00 | 0.08 | 0.08 | 80 | 1014.0 |
| 20260506182100 | 14 | 327 | 12.9 | 25.7 | 0.00 | 0.08 | 0.08 | 79 | 1013.9 |
| 20260506181602 | 14 | 354 | 12.9 | 25.7 | 0.00 | 0.08 | 0.08 | 78 | 1014.1 |
| 20260506181100 | 13 | 335 | 14.5 | 22.5 | 0.00 | 0.08 | 0.08 | 80 | 1014.3 |
| 20260506180601 | 13 | 329 | 11.3 | 20.9 | 0.00 | 0.08 | 0.08 | 81 | 1014.2 |
| 20260506180107 | 13 | 11 | 14.5 | 20.9 | 0.00 | 0.08 | 0.08 | 80 | 1014.2 |
| 20260506175600 | 13 | 8 | 9.7 | 24.1 | 0.00 | 0.08 | 0.08 | 82 | 1014.3 |
| 20260506175103 | 12 | 18 | 12.9 | 25.7 | 0.00 | 0.08 | 0.08 | 80 | 1014.2 |
| 20260506174602 | 12 | 18 | 16.1 | 25.7 | 0.00 | 0.08 | 0.08 | 80 | 1014.3 |
| 20260506174102 | 12 | 342 | 11.3 | 19.3 | 0.00 | 0.08 | 0.08 | 81 | 1014.4 |
| 20260506173601 | 12 | 13 | 9.7 | 22.5 | 0.00 | 0.08 | 0.08 | 83 | 1014.1 |
| 20260506173107 | 12 | 329 | 12.9 | 22.5 | 0.00 | 0.08 | 0.08 | 82 | 1014.0 |
| 20260506172559 | 12 | 328 | 12.9 | 22.5 | 0.00 | 0.08 | 0.08 | 81 | 1014.2 |
| 20260506172100 | 12 | 330 | 12.9 | 22.5 | 0.00 | 0.08 | 0.08 | 83 | 1014.5 |
| 20260506171604 | 12 | 14 | 8.0 | 22.5 | 0.00 | 0.08 | 0.08 | 83 | 1014.5 |
| 20260506171101 | 12 | 23 | 14.5 | 22.5 | 0.00 | 0.08 | 0.08 | 83 | 1014.6 |
| 20260506170601 | 12 | 355 | 11.3 | 19.3 | 0.00 | 0.08 | 0.08 | 82 | 1014.8 |
| 20260506170113 | 12 | 27 | 11.3 | 19.3 | 0.00 | 0.08 | 0.08 | 82 | 1014.8 |
| 20260506165603 | 12 | 15 | 11.3 | 17.7 | 0.00 | 0.08 | 0.08 | 83 | 1015.0 |
| 20260506165101 | 12 | 1 | 9.7 | 17.7 | 0.00 | 0.08 | 0.08 | 83 | 1014.9 |
| 20260506164615 | 12 | 1 | 11.3 | 17.7 | 0.00 | 0.08 | 0.08 | 83 | 1015.0 |
| 20260506164101 | 12 | 62 | 6.4 | 17.7 | 0.00 | 0.08 | 0.08 | 84 | 1015.0 |
| 20260506163602 | 11 | 33 | 8.0 | 24.1 | 0.03 | 0.08 | 0.08 | 85 | 1014.9 |
| 20260506163119 | 11 | 44 | 9.7 | 29.0 | 0.03 | 0.08 | 0.08 | 85 | 1014.8 |
| 20260506162600 | 11 | 332 | 12.9 | 29.0 | 0.03 | 0.08 | 0.08 | 85 | 1014.4 |
| 20260506162100 | 11 | 22 | 14.5 | 24.1 | 0.03 | 0.08 | 0.08 | 85 | 1014.3 |
| 20260506161616 | 11 | 333 | 12.9 | 24.1 | 0.03 | 0.08 | 0.08 | 86 | 1014.4 |
| 20260506161100 | 11 | 309 | 14.5 | 24.1 | 0.05 | 0.08 | 0.08 | 86 | 1014.6 |
| 20260506160603 | 11 | 16 | 8.0 | 16.1 | 0.08 | 0.08 | 0.08 | 86 | 1014.9 |
| 20260506160100 | 11 | 318 | 9.7 | 16.1 | 0.08 | 0.08 | 0.08 | 86 | 1015.0 |
| 20260506155601 | 11 | 337 | 9.7 | 20.9 | 0.08 | 0.08 | 0.08 | 86 | 1015.0 |
| 20260506155100 | 11 | 345 | 11.3 | 29.0 | 0.08 | 0.08 | 0.08 | 87 | 1014.5 |
| 20260506154628 | 11 | 325 | 16.1 | 29.0 | 0.08 | 0.08 | 0.08 | 88 | 1014.0 |
| 20260506154104 | 11 | 330 | 14.5 | 20.9 | 0.08 | 0.08 | 0.08 | 88 | 1013.7 |
| 20260506153601 | 11 | 325 | 11.3 | 16.1 | 0.05 | 0.05 | 0.05 | 88 | 1014.4 |
| 20260506153115 | 11 | 11 | 4.8 | 8.0 | 0.05 | 0.05 | 0.05 | 88 | 1015.3 |
| 20260506152601 | 11 | 4 | 4.8 | 11.3 | 0.05 | 0.05 | 0.05 | 88 | 1015.7 |
| 20260506152100 | 11 | 271 | 6.4 | 11.3 | 0.05 | 0.05 | 0.05 | 87 | 1016.2 |
| 20260506151602 | 11 | 289 | 6.4 | 11.3 | 0.05 | 0.05 | 0.05 | 87 | 1016.3 |
| 20260506151100 | 11 | 315 | 4.8 | 11.3 | 0.03 | 0.03 | 0.03 | 86 | 1016.2 |
| 20260506150600 | 11 | 304 | 6.4 | 11.3 | 0.00 | 0.00 | 0.00 | 85 | 1016.1 |
| 20260506145601 | 11 | 307 | 9.7 | 19.3 | 0.00 | 0.00 | 0.00 | 85 | 1015.4 |
| 20260506145100 | 11 | 339 | 9.7 | 20.9 | 0.00 | 0.00 | 0.00 | 84 | 1015.3 |
| 20260506144600 | 11 | 16 | 8.0 | 24.1 | 0.00 | 0.00 | 0.00 | 86 | 1015.1 |
| 20260506144100 | 11 | 20 | 16.1 | 24.1 | 0.00 | 0.00 | 0.00 | 85 | 1014.3 |
| 20260506143601 | 11 | 327 | 12.9 | 19.3 | 0.00 | 0.00 | 0.00 | 86 | 1014.1 |
| 20260506143108 | 11 | 10 | 9.7 | 16.1 | 0.00 | 0.00 | 0.00 | 85 | 1014.4 |
| 20260506142602 | 11 | 338 | 8.0 | 16.1 | 0.00 | 0.00 | 0.00 | 84 | 1015.1 |
| 20260506142102 | 11 | 24 | 6.4 | 17.7 | 0.00 | 0.00 | 0.00 | 84 | 1015.1 |
| 20260506141601 | 11 | 333 | 11.3 | 17.7 | 0.00 | 0.00 | 0.00 | 84 | 1015.1 |
| 20260506141101 | 11 | 316 | 11.3 | 17.7 | 0.00 | 0.00 | 0.00 | 84 | 1015.1 |
| 20260506140600 | 11 | 331 | 11.3 | 20.9 | 0.00 | 0.00 | 0.00 | 84 | 1014.7 |
| 20260506135600 | 11 | 4 | 11.3 | 22.5 | 0.00 | 0.00 | 0.00 | 84 | 1015.0 |
| 20260506135101 | 11 | 330 | 14.5 | 22.5 | 0.00 | 0.00 | 0.00 | 83 | 1014.3 |
| 20260506134558 | 11 | 23 | 12.9 | 22.5 | 0.00 | 0.00 | 0.00 | 84 | 1014.0 |
| 20260506134100 | 11 | 344 | 14.5 | 22.5 | 0.00 | 0.00 | 0.00 | 84 | 1013.9 |
| 20260506133600 | 11 | 326 | 16.1 | 24.1 | 0.00 | 0.00 | 0.00 | 84 | 1013.8 |
| 20260506133102 | 11 | 319 | 14.5 | 24.1 | 0.00 | 0.00 | 0.00 | 83 | 1013.8 |
| 20260506132601 | 11 | 328 | 12.9 | 22.5 | 0.00 | 0.00 | 0.00 | 84 | 1013.9 |
| 20260506132103 | 11 | 342 | 9.7 | 20.9 | 0.00 | 0.00 | 0.00 | 84 | 1013.9 |
| 20260506131601 | 11 | 339 | 12.9 | 20.9 | 0.00 | 0.00 | 0.00 | 84 | 1013.9 |
| 20260506131100 | 11 | 359 | 12.9 | 20.9 | 0.00 | 0.00 | 0.00 | 84 | 1013.8 |
| 20260506130600 | 11 | 354 | 9.7 | 19.3 | 0.00 | 0.00 | 0.00 | 85 | 1013.5 |
| 20260506125600 | 11 | 351 | 11.3 | 27.4 | 0.00 | 0.00 | 0.00 | 85 | 1013.6 |
| 20260506125104 | 11 | 15 | 14.5 | 27.4 | 0.00 | 0.00 | 0.00 | 85 | 1013.3 |
| 20260506124559 | 11 | 321 | 11.3 | 22.5 | 0.00 | 0.00 | 0.00 | 85 | 1013.2 |
| 20260506124100 | 11 | 329 | 9.7 | 22.5 | 0.00 | 0.00 | 0.00 | 85 | 1013.2 |
| 20260506123600 | 10 | 330 | 12.9 | 22.5 | 0.00 | 0.00 | 0.00 | 85 | 1013.5 |
| 20260506123103 | 10 | 299 | 12.9 | 24.1 | 0.00 | 0.00 | 0.00 | 85 | 1013.2 |
| 20260506122600 | 10 | 328 | 12.9 | 25.7 | 0.00 | 0.00 | 0.00 | 85 | 1013.2 |
| 20260506122100 | 10 | 333 | 16.1 | 25.7 | 0.00 | 0.00 | 0.00 | 85 | 1013.2 |
| 20260506121600 | 10 | 4 | 12.9 | 27.4 | 0.00 | 0.00 | 0.00 | 85 | 1013.1 |
| 20260506121101 | 10 | 340 | 16.1 | 27.4 | 0.00 | 0.00 | 0.00 | 84 | 1013.0 |
| 20260506120601 | 10 | 350 | 16.1 | 24.1 | 0.00 | 0.00 | 0.00 | 84 | 1013.1 |
| 20260506120101 | 11 | 6 | 14.5 | 24.1 | 0.00 | 0.00 | 0.00 | 85 | 1013.0 |
| 20260506115601 | 11 | 283 | 16.1 | 22.5 | 0.00 | 0.00 | 0.00 | 84 | 1013.1 |
| 20260506115100 | 11 | 316 | 11.3 | 20.9 | 0.00 | 0.00 | 0.00 | 84 | 1013.0 |
| 20260506114606 | 11 | 309 | 11.3 | 25.7 | 0.00 | 0.00 | 0.00 | 84 | 1012.8 |
| 20260506114101 | 11 | 342 | 16.1 | 25.7 | 0.00 | 0.00 | 0.00 | 83 | 1012.9 |
| 20260506113600 | 11 | 325 | 14.5 | 25.7 | 0.00 | 0.00 | 0.00 | 83 | 1012.6 |
| 20260506113100 | 11 | 329 | 14.5 | 22.5 | 0.00 | 0.00 | 0.00 | 82 | 1012.6 |
| 20260506112600 | 11 | 335 | 12.9 | 25.7 | 0.00 | 0.00 | 0.00 | 82 | 1012.3 |
| 20260506112100 | 11 | 332 | 17.7 | 25.7 | 0.00 | 0.00 | 0.00 | 81 | 1012.3 |
| 20260506111559 | 11 | 338 | 16.1 | 32.2 | 0.00 | 0.00 | 0.00 | 80 | 1012.2 |
| 20260506111100 | 11 | 323 | 17.7 | 32.2 | 0.00 | 0.00 | 0.00 | 79 | 1012.2 |
| 20260506110601 | 12 | 327 | 14.5 | 27.4 | 0.00 | 0.00 | 0.00 | 78 | 1012.1 |
| 20260506110104 | 12 | 331 | 12.9 | 20.9 | 0.00 | 0.00 | 0.00 | 78 | 1012.0 |
| 20260506105601 | 12 | 335 | 11.3 | 19.3 | 0.00 | 0.00 | 0.00 | 78 | 1012.0 |
| 20260506105101 | 12 | 308 | 11.3 | 19.3 | 0.00 | 0.00 | 0.00 | 78 | 1011.8 |
| 20260506104600 | 12 | 338 | 12.9 | 22.5 | 0.00 | 0.00 | 0.00 | 77 | 1011.7 |
| 20260506104100 | 12 | 330 | 12.9 | 22.5 | 0.00 | 0.00 | 0.00 | 78 | 1011.8 |
| 20260506103600 | 12 | 327 | 14.5 | 22.5 | 0.00 | 0.00 | 0.00 | 77 | 1011.7 |
| 20260506103059 | 12 | 326 | 14.5 | 24.1 | 0.00 | 0.00 | 0.00 | 77 | 1011.6 |
| 20260506102601 | 12 | 4 | 12.9 | 24.1 | 0.00 | 0.00 | 0.00 | 77 | 1011.5 |
| 20260506102104 | 12 | 292 | 14.5 | 24.1 | 0.00 | 0.00 | 0.00 | 77 | 1011.5 |
| 20260506101606 | 12 | 338 | 12.9 | 22.5 | 0.00 | 0.00 | 0.00 | 78 | 1011.3 |
| 20260506101101 | 12 | 300 | 14.5 | 22.5 | 0.00 | 0.00 | 0.00 | 77 | 1011.2 |
| 20260506100601 | 12 | 328 | 9.7 | 22.5 | 0.00 | 0.00 | 0.00 | 78 | 1011.3 |
| 20260506095601 | 12 | 346 | 11.3 | 20.9 | 0.00 | 0.00 | 0.00 | 77 | 1011.1 |
| 20260506095100 | 12 | 316 | 11.3 | 22.5 | 0.00 | 0.00 | 0.00 | 77 | 1010.9 |
| 20260506094629 | 12 | 22 | 12.9 | 22.5 | 0.00 | 0.00 | 0.00 | 77 | 1010.9 |
| 20260506094100 | 12 | 11 | 8.0 | 20.9 | 0.00 | 0.00 | 0.00 | 77 | 1010.9 |
| 20260506093600 | 12 | 339 | 12.9 | 20.9 | 0.00 | 0.00 | 0.00 | 77 | 1010.9 |
| 20260506093108 | 12 | 340 | 11.3 | 16.1 | 0.00 | 0.00 | 0.00 | 77 | 1010.7 |
| 20260506092601 | 12 | 349 | 6.4 | 16.1 | 0.00 | 0.00 | 0.00 | 78 | 1010.7 |
| 20260506092101 | 12 | 336 | 6.4 | 19.3 | 0.00 | 0.00 | 0.00 | 78 | 1010.7 |
| 20260506091559 | 12 | 4 | 12.9 | 19.3 | 0.00 | 0.00 | 0.00 | 77 | 1010.6 |
| 20260506091101 | 13 | 319 | 12.9 | 19.3 | 0.00 | 0.00 | 0.00 | 77 | 1010.7 |
| 20260506090600 | 13 | 349 | 12.9 | 19.3 | 0.00 | 0.00 | 0.00 | 77 | 1010.5 |
| 20260506085600 | 13 | 332 | 8.0 | 14.5 | 0.00 | 0.00 | 0.00 | 78 | 1010.4 |
| 20260506085100 | 13 | 329 | 8.0 | 14.5 | 0.00 | 0.00 | 0.00 | 78 | 1010.5 |
| 20260506084603 | 13 | 349 | 8.0 | 16.1 | 0.00 | 0.00 | 0.00 | 78 | 1010.3 |
| 20260506084103 | 13 | 354 | 9.7 | 16.1 | 0.00 | 0.00 | 0.00 | 78 | 1010.3 |
| 20260506083600 | 13 | 1 | 11.3 | 16.1 | 0.00 | 0.00 | 0.00 | 78 | 1010.4 |
| 20260506083104 | 13 | 319 | 8.0 | 14.5 | 0.00 | 0.00 | 0.00 | 78 | 1010.4 |
| 20260506082604 | 13 | 347 | 8.0 | 17.7 | 0.00 | 0.00 | 0.00 | 78 | 1010.3 |
| 20260506082100 | 13 | 334 | 8.0 | 20.9 | 0.00 | 0.00 | 0.00 | 78 | 1010.6 |
| 20260506081601 | 13 | 328 | 12.9 | 20.9 | 0.00 | 0.00 | 0.00 | 78 | 1010.2 |
| 20260506081101 | 13 | 309 | 14.5 | 20.9 | 0.00 | 0.00 | 0.00 | 78 | 1010.2 |
| 20260506080603 | 13 | 338 | 12.9 | 17.7 | 0.00 | 0.00 | 0.00 | 78 | 1010.3 |
| 20260506073108 | 13 | 33 | 6.4 | 12.9 | 0.00 | 0.00 | 0.00 | 80 | 1009.9 |
| 20260506072600 | 13 | 26 | 6.4 | 14.5 | 0.00 | 0.00 | 0.00 | 81 | 1009.7 |
| 20260506072059 | 13 | 348 | 9.7 | 14.5 | 0.00 | 0.00 | 0.00 | 80 | 1009.7 |
| 20260506071600 | 13 | 22 | 6.4 | 19.3 | 0.00 | 0.00 | 0.00 | 81 | 1009.6 |
| 20260506071100 | 13 | 43 | 6.4 | 19.3 | 0.00 | 0.00 | 0.00 | 81 | 1009.7 |
| 20260506070600 | 13 | 312 | 11.3 | 17.7 | 0.00 | 0.00 | 0.00 | 81 | 1009.8 |
| 20260506070110 | 13 | 40 | 6.4 | 17.7 | 0.00 | 0.00 | 0.00 | 81 | 1009.8 |
| 20260506062100 | 13 | 342 | 12.9 | 20.9 | 0.00 | 0.00 | 0.00 | 81 | 1009.9 |
| 20260506061612 | 13 | 316 | 12.9 | 20.9 | 0.00 | 0.00 | 0.00 | 82 | 1010.0 |
| 20260506061101 | 13 | 329 | 9.7 | 19.3 | 0.00 | 0.00 | 0.00 | 82 | 1009.9 |
| 20260506060601 | 13 | 307 | 11.3 | 19.3 | 0.00 | 0.00 | 0.00 | 82 | 1010.0 |
| 20260506060105 | 13 | 1 | 11.3 | 22.5 | 0.00 | 0.00 | 0.00 | 82 | 1009.9 |
| 20260506051100 | 15 | 346 | 12.9 | 20.9 | 0.00 | 0.00 | 0.00 | 80 | 1010.1 |
| 20260506050600 | 15 | 307 | 8.0 | 24.1 | 0.00 | 0.00 | 0.00 | 80 | 1009.9 |
| 20260506045101 | 15 | 339 | 12.9 | 22.5 | 0.00 | 0.00 | 0.00 | 81 | 1009.9 |
| 20260506044601 | 15 | 340 | 12.9 | 20.9 | 0.00 | 0.00 | 0.00 | 81 | 1009.8 |
| 20260506044100 | 15 | 330 | 11.3 | 17.7 | 0.00 | 0.00 | 0.00 | 80 | 1009.8 |
| 20260506043600 | 15 | 352 | 11.3 | 19.3 | 0.00 | 0.00 | 0.00 | 81 | 1009.9 |
| 20260506043102 | 15 | 326 | 9.7 | 19.3 | 0.00 | 0.00 | 0.00 | 81 | 1010.0 |
| 20260506042601 | 15 | 323 | 9.7 | 19.3 | 0.00 | 0.00 | 0.00 | 80 | 1010.0 |
| 20260506042104 | 15 | 348 | 9.7 | 25.7 | 0.00 | 0.00 | 0.00 | 81 | 1009.8 |
| 20260506041604 | 15 | 18 | 16.1 | 25.7 | 0.00 | 0.00 | 0.00 | 80 | 1009.9 |
| 20260506041101 | 16 | 343 | 12.9 | 24.1 | 0.00 | 0.00 | 0.00 | 80 | 1009.8 |
| 20260506040600 | 16 | 357 | 12.9 | 29.0 | 0.00 | 0.00 | 0.00 | 80 | 1009.8 |
| 20260506040105 | 16 | 319 | 19.3 | 30.6 | 0.00 | 0.00 | 0.00 | 80 | 1009.7 |
| 20260506035602 | 16 | 307 | 14.5 | 30.6 | 0.00 | 0.00 | 0.00 | 80 | 1009.8 |
| 20260506035100 | 16 | 342 | 17.7 | 29.0 | 0.00 | 0.00 | 0.00 | 80 | 1009.6 |
| 20260506034611 | 16 | 325 | 19.3 | 25.7 | 0.00 | 0.00 | 0.00 | 80 | 1009.4 |
| 20260506034059 | 16 | 359 | 17.7 | 25.7 | 0.00 | 0.00 | 0.00 | 80 | 1009.4 |
| 20260506033559 | 16 | 338 | 16.1 | 25.7 | 0.00 | 0.00 | 0.00 | 80 | 1009.1 |
| 20260506033058 | 16 | 348 | 16.1 | 25.7 | 0.00 | 0.00 | 0.00 | 80 | 1009.2 |
| 20260506032559 | 16 | 23 | 14.5 | 24.1 | 0.00 | 0.00 | 0.00 | 80 | 1009.1 |
| 20260506032103 | 16 | 323 | 11.3 | 20.9 | 0.00 | 0.00 | 0.00 | 80 | 1008.9 |
| 20260506031606 | 16 | 34 | 11.3 | 22.5 | 0.00 | 0.00 | 0.00 | 80 | 1008.8 |
| 20260506031059 | 17 | 1 | 14.5 | 24.1 | 0.00 | 0.00 | 0.00 | 79 | 1008.7 |
| 20260506030600 | 17 | 359 | 12.9 | 24.1 | 0.00 | 0.00 | 0.00 | 79 | 1008.8 |
| 20260506030056 | 17 | 1 | 16.1 | 22.5 | 0.00 | 0.00 | 0.00 | 79 | 1008.9 |
| 20260506025559 | 17 | 327 | 12.9 | 27.4 | 0.00 | 0.00 | 0.00 | 79 | 1008.7 |
| 20260506025059 | 17 | 327 | 12.9 | 27.4 | 0.00 | 0.00 | 0.00 | 79 | 1008.6 |
| 20260506024557 | 17 | 310 | 17.7 | 27.4 | 0.00 | 0.00 | 0.00 | 78 | 1008.6 |
| 20260506024059 | 17 | 352 | 14.5 | 27.4 | 0.00 | 0.00 | 0.00 | 78 | 1008.5 |
| 20260506023600 | 17 | 318 | 12.9 | 27.4 | 0.00 | 0.00 | 0.00 | 78 | 1008.5 |
| 20260506023059 | 18 | 6 | 17.7 | 25.7 | 0.00 | 0.00 | 0.00 | 78 | 1008.3 |
| 20260506022559 | 18 | 327 | 14.5 | 25.7 | 0.00 | 0.00 | 0.00 | 77 | 1008.0 |
| 20260506022059 | 18 | 356 | 16.1 | 24.1 | 0.00 | 0.00 | 0.00 | 77 | 1008.0 |
| 20260506021600 | 18 | 329 | 12.9 | 27.4 | 0.00 | 0.00 | 0.00 | 77 | 1007.6 |
| 20260506021059 | 18 | 350 | 14.5 | 27.4 | 0.00 | 0.00 | 0.00 | 78 | 1007.4 |
| 20260506020558 | 18 | 279 | 9.7 | 19.3 | 0.00 | 0.00 | 0.00 | 78 | 1007.3 |
| 20260506015600 | 19 | 335 | 8.0 | 12.9 | 0.00 | 0.00 | 0.00 | 77 | 1006.9 |
| 20260506015100 | 19 | 359 | 8.0 | 17.7 | 0.00 | 0.00 | 0.00 | 76 | 1006.9 |
| 20260506014558 | 19 | 343 | 8.0 | 17.7 | 0.00 | 0.00 | 0.00 | 76 | 1007.2 |
| 20260506014101 | 19 | 321 | 9.7 | 17.7 | 0.00 | 0.00 | 0.00 | 76 | 1007.0 |
| 20260506013559 | 19 | 346 | 6.4 | 16.1 | 0.00 | 0.00 | 0.00 | 75 | 1006.9 |
| 20260506013057 | 19 | 319 | 8.0 | 16.1 | 0.00 | 0.00 | 0.00 | 75 | 1007.0 |